Location: *
(57.8420°S, 159.8600°W)
Time: 13:16:06
(UTC+00:00)

ATLAS 3B R/B - Pass Details

Date: 18 May 2021
Orbit: 1006 x 1189 km, 63.8° (Epoch: 17 June)

Event Time Altitude Azimuth Distance (km) Brightness Sun altitude
Rises 05:16:46 0° 311° (NW) 4,082 6.5 -21.9°
Reaches altitude 10° 05:19:31 10° 311° (NW) 3,113 5.8 -22.3°
Maximum altitude 05:27:01 85° 38° (NE) 1,176 2.8 -23.3°
Enters shadow 05:30:10 38° 123° (ESE) 1,682 3.3 -23.7°
